SWR105Z LSZH-EDDH

Flight info

Callsign SWR105Z
Flight time 1h 10m
Altitude 34000
Route DEGES Z1 ETAGO DCT HAREM/N0441F330 DCT LOHRE DCT MASEK DCT ELNAT/N0438F340 P605 NOLGO NOLGO3D
Aircraft A320/M-SDE3FGHIRWY/LB1

Departure

Time 2026-02-19 14:37
Airport Zürich Airport (LSZH)

Arrival

Time 2026-02-19 15:48
Airport Hamburg Helmut Schmidt Airport (EDDH)
Time Latitude Longitude Altitude Speed Heading
2026-02-19 14:21 47.45410 8.56062 1410 ft 0 kts 185°
2026-02-19 14:31 47.45422 8.56063 1415 ft 3 kts 183°
2026-02-19 14:32 47.45443 8.56064 1410 ft 3 kts 176°
2026-02-19 14:32 47.45480 8.56050 1412 ft 3 kts 135°
2026-02-19 14:32 47.45488 8.56033 1409 ft 1 kts 96°
2026-02-19 14:33 47.45489 8.56025 1410 ft 0 kts 96°
2026-02-19 14:34 47.45486 8.56065 1409 ft 12 kts 96°
2026-02-19 14:35 47.45484 8.56216 1408 ft 15 kts 67°
2026-02-19 14:35 47.45546 8.56336 1413 ft 15 kts 51°
2026-02-19 14:35 47.45593 8.56481 1414 ft 17 kts 93°
2026-02-19 14:35 47.45583 8.56639 1417 ft 14 kts 96°
2026-02-19 14:36 47.45573 8.56782 1422 ft 14 kts 96°
2026-02-19 14:36 47.45630 8.57017 1425 ft 13 kts 355°
2026-02-19 14:36 47.45671 8.56894 1423 ft 20 kts 275°
2026-02-19 14:37 47.45709 8.56356 1418 ft 87 kts 276°
2026-02-19 14:37 47.45792 8.55154 1401 ft 146 kts 276°
2026-02-19 14:37 47.45906 8.53550 1779 ft 160 kts 276°
2026-02-19 14:37 47.46023 8.51899 2506 ft 163 kts 274°
2026-02-19 14:38 47.46134 8.50192 3013 ft 172 kts 272°
2026-02-19 14:38 47.46182 8.48413 3498 ft 171 kts 258°
2026-02-19 14:38 47.45614 8.46939 4103 ft 167 kts 229°
2026-02-19 14:38 47.44765 8.45789 4697 ft 167 kts 219°
2026-02-19 14:39 47.43592 8.45454 5132 ft 190 kts 174°
2026-02-19 14:39 47.42406 8.46604 5373 ft 228 kts 131°
2026-02-19 14:39 47.41803 8.48915 5630 ft 257 kts 102°
2026-02-19 14:39 47.41659 8.51694 5834 ft 285 kts 91°
2026-02-19 14:40 47.41718 8.54715 6400 ft 300 kts 88°
2026-02-19 14:40 47.41910 8.60924 7998 ft 308 kts 88°
2026-02-19 14:40 47.41954 8.64100 8839 ft 311 kts 90°
2026-02-19 14:41 47.41959 8.67304 9683 ft 313 kts 90°
2026-02-19 14:41 47.41937 8.70571 10215 ft 324 kts 91°
2026-02-19 14:41 47.41899 8.73919 10954 ft 328 kts 91°
2026-02-19 14:41 47.41855 8.77300 11704 ft 330 kts 91°
2026-02-19 14:42 47.41810 8.80700 12482 ft 332 kts 91°
2026-02-19 14:42 47.41762 8.84115 13206 ft 334 kts 91°
2026-02-19 14:42 47.41713 8.87552 13873 ft 336 kts 91°
2026-02-19 14:42 47.41727 8.91014 14496 ft 338 kts 83°
2026-02-19 14:43 47.42353 8.94347 15098 ft 339 kts 62°
2026-02-19 14:43 47.43715 8.97155 15695 ft 337 kts 40°
2026-02-19 14:43 47.45643 8.99055 16293 ft 334 kts 20°
2026-02-19 14:43 47.47886 8.99875 16874 ft 333 kts
2026-02-19 14:44 47.50196 9.00288 17472 ft 336 kts
2026-02-19 14:44 47.54875 9.01086 18548 ft 340 kts 358°
2026-02-19 14:44 47.57211 9.00627 19020 ft 341 kts 345°
2026-02-19 14:45 47.59524 8.99786 19512 ft 343 kts 344°
2026-02-19 14:45 47.61875 8.99077 19994 ft 348 kts 355°
2026-02-19 14:45 47.64306 8.99318 20469 ft 353 kts
2026-02-19 14:45 47.66745 8.99810 20947 ft 356 kts
2026-02-19 14:46 47.69220 9.00324 21380 ft 361 kts
2026-02-19 14:46 47.71717 9.00845 21847 ft 364 kts
2026-02-19 14:46 47.74202 9.01365 22313 ft 367 kts
2026-02-19 14:46 47.76741 9.01894 22790 ft 370 kts
2026-02-19 14:47 47.79335 9.02430 23258 ft 373 kts
2026-02-19 14:47 47.81883 9.02953 23641 ft 376 kts
2026-02-19 14:47 47.84486 9.03487 24031 ft 379 kts
2026-02-19 14:47 47.87105 9.04026 24413 ft 382 kts
2026-02-19 14:48 47.89765 9.04575 24662 ft 390 kts
2026-02-19 14:48 47.95288 9.05725 24915 ft 411 kts
2026-02-19 14:48 47.98151 9.06322 25042 ft 420 kts
2026-02-19 14:49 48.01078 9.06931 25170 ft 429 kts
2026-02-19 14:49 48.04058 9.07551 25296 ft 436 kts
2026-02-19 14:49 48.07093 9.08183 25422 ft 443 kts
2026-02-19 14:49 48.10170 9.08827 25590 ft 449 kts
2026-02-19 14:50 48.13282 9.09479 25831 ft 453 kts
2026-02-19 14:50 48.16411 9.10134 26108 ft 455 kts
2026-02-19 14:50 48.19555 9.10792 26390 ft 458 kts
2026-02-19 14:50 48.22717 9.11451 26664 ft 460 kts
2026-02-19 14:51 48.25893 9.12115 26925 ft 462 kts
2026-02-19 14:51 48.29084 9.12788 27171 ft 464 kts
2026-02-19 14:51 48.32288 9.13466 27408 ft 467 kts
2026-02-19 14:51 48.35513 9.14147 27649 ft 469 kts 10°
2026-02-19 14:52 48.38752 9.14829 27880 ft 471 kts 10°
2026-02-19 14:52 48.45263 9.16206 28346 ft 474 kts 10°
2026-02-19 14:52 48.48537 9.16898 28570 ft 476 kts 10°
2026-02-19 14:53 48.51825 9.17591 28810 ft 478 kts 10°
2026-02-19 14:53 48.55122 9.18285 29050 ft 479 kts 10°
2026-02-19 14:53 48.58418 9.18980 29352 ft 478 kts 10°
2026-02-19 14:53 48.61713 9.19679 29644 ft 478 kts 10°
2026-02-19 14:54 48.65002 9.20381 29911 ft 477 kts 10°
2026-02-19 14:54 48.68290 9.21086 30171 ft 477 kts 10°
2026-02-19 14:54 48.71570 9.21792 30426 ft 476 kts 10°
2026-02-19 14:54 48.74844 9.22496 30662 ft 476 kts
2026-02-19 14:55 48.78122 9.23200 30910 ft 475 kts
2026-02-19 14:55 48.81400 9.23902 31165 ft 475 kts
2026-02-19 14:55 48.84667 9.24599 31422 ft 474 kts
2026-02-19 14:55 48.87925 9.25296 31688 ft 473 kts
2026-02-19 14:56 48.91183 9.25995 31954 ft 472 kts
2026-02-19 14:56 48.97684 9.27394 32445 ft 472 kts
2026-02-19 14:56 49.00931 9.28094 32699 ft 471 kts
2026-02-19 14:57 49.04172 9.28794 32963 ft 470 kts
2026-02-19 14:57 49.07408 9.29495 33237 ft 469 kts
2026-02-19 14:57 49.10637 9.30196 33517 ft 468 kts
2026-02-19 14:57 49.13859 9.30900 33647 ft 468 kts
2026-02-19 14:58 49.20298 9.32316 33674 ft 467 kts
2026-02-19 14:58 49.26735 9.33716 33685 ft 467 kts
2026-02-19 14:59 49.33169 9.35114 33685 ft 467 kts
2026-02-19 14:59 49.39564 9.36520 33691 ft 468 kts
2026-02-19 15:00 49.49226 9.38652 33695 ft 468 kts
2026-02-19 15:01 49.55675 9.40084 33699 ft 468 kts
2026-02-19 15:01 49.62130 9.41519 33707 ft 469 kts
2026-02-19 15:02 49.68608 9.42695 33711 ft 469 kts
2026-02-19 15:02 49.75110 9.43632 33719 ft 469 kts
2026-02-19 15:03 49.81605 9.44577 33718 ft 469 kts
2026-02-19 15:03 49.88101 9.45602 33726 ft 469 kts
2026-02-19 15:04 49.94588 9.46677 33730 ft 469 kts
2026-02-19 15:04 50.04314 9.48271 33732 ft 469 kts
2026-02-19 15:05 50.10799 9.49314 33730 ft 468 kts
2026-02-19 15:05 50.17278 9.50398 33743 ft 468 kts
2026-02-19 15:06 50.23756 9.51486 33751 ft 468 kts
2026-02-19 15:06 50.30230 9.52574 33747 ft 468 kts
2026-02-19 15:07 50.36706 9.53671 33749 ft 468 kts
2026-02-19 15:07 50.43184 9.54763 33757 ft 468 kts
2026-02-19 15:08 50.52895 9.56418 33769 ft 468 kts
2026-02-19 15:09 50.59363 9.57528 33790 ft 467 kts
2026-02-19 15:09 50.65820 9.58626 33789 ft 467 kts
2026-02-19 15:10 50.72273 9.59724 33788 ft 466 kts
2026-02-19 15:10 50.78718 9.60897 33794 ft 466 kts
2026-02-19 15:11 50.85163 9.62174 33794 ft 467 kts
2026-02-19 15:11 50.91562 9.63451 33790 ft 467 kts
2026-02-19 15:12 50.98009 9.64714 33799 ft 466 kts
2026-02-19 15:12 51.06618 9.66377 33807 ft 466 kts
2026-02-19 15:13 51.13054 9.67632 33817 ft 466 kts
2026-02-19 15:13 51.19485 9.68906 33813 ft 465 kts
2026-02-19 15:14 51.25864 9.70089 33835 ft 464 kts
2026-02-19 15:14 51.32281 9.71082 33842 ft 463 kts
2026-02-19 15:15 51.38690 9.72048 33824 ft 462 kts
2026-02-19 15:15 51.45091 9.73080 33826 ft 462 kts
2026-02-19 15:16 51.54677 9.74797 33831 ft 462 kts
2026-02-19 15:17 51.61063 9.76044 33832 ft 462 kts
2026-02-19 15:17 51.67445 9.77280 33853 ft 461 kts
2026-02-19 15:18 51.73801 9.78500 33877 ft 459 kts
2026-02-19 15:18 51.80131 9.79704 33886 ft 458 kts
2026-02-19 15:19 51.86454 9.80902 33886 ft 457 kts
2026-02-19 15:19 51.92751 9.82116 33899 ft 454 kts
2026-02-19 15:20 51.99011 9.83335 33912 ft 452 kts
2026-02-19 15:20 52.08355 9.85146 33914 ft 450 kts
2026-02-19 15:21 52.14565 9.86356 33921 ft 448 kts
2026-02-19 15:21 52.20736 9.87565 33926 ft 446 kts
2026-02-19 15:22 52.29841 9.90501 33934 ft 445 kts 12°
2026-02-19 15:23 52.35821 9.93130 33937 ft 445 kts 12°
2026-02-19 15:23 52.38805 9.94443 33712 ft 442 kts 13°
2026-02-19 15:23 52.41773 9.95755 32858 ft 442 kts 12°
2026-02-19 15:23 52.44711 9.97055 31958 ft 445 kts 12°
2026-02-19 15:24 52.53782 10.01062 29041 ft 454 kts 13°
2026-02-19 15:24 52.56815 10.02410 28347 ft 449 kts 13°
2026-02-19 15:25 52.59810 10.03749 27679 ft 443 kts 13°
2026-02-19 15:25 52.62767 10.05072 27051 ft 438 kts 12°
2026-02-19 15:25 52.65692 10.06383 26422 ft 433 kts 12°
2026-02-19 15:25 52.68583 10.07685 25804 ft 429 kts 13°
2026-02-19 15:26 52.71449 10.08981 25199 ft 425 kts 13°
2026-02-19 15:26 52.74287 10.10265 24611 ft 421 kts 12°
2026-02-19 15:26 52.77113 10.11419 24041 ft 415 kts
2026-02-19 15:26 52.79964 10.11863 23477 ft 409 kts 358°
2026-02-19 15:27 52.82793 10.11940 22827 ft 406 kts 359°
2026-02-19 15:27 52.85605 10.12022 22219 ft 402 kts 359°
2026-02-19 15:27 52.88391 10.12115 21653 ft 399 kts 359°
2026-02-19 15:27 52.91149 10.12211 21106 ft 395 kts 359°
2026-02-19 15:28 52.93889 10.12303 20572 ft 392 kts 359°
2026-02-19 15:28 52.99290 10.12481 19583 ft 385 kts 360°
2026-02-19 15:28 53.01960 10.12570 19079 ft 383 kts 360°
2026-02-19 15:29 53.04578 10.12666 18614 ft 379 kts 359°
2026-02-19 15:29 53.07205 10.12763 18128 ft 377 kts 360°
2026-02-19 15:29 53.09820 10.12852 17561 ft 375 kts
2026-02-19 15:30 53.14989 10.13018 16541 ft 369 kts
2026-02-19 15:30 53.17525 10.13097 16322 ft 359 kts
2026-02-19 15:30 53.19976 10.13174 16186 ft 346 kts
2026-02-19 15:30 53.22347 10.13253 16062 ft 335 kts
2026-02-19 15:31 53.24645 10.13332 15933 ft 325 kts
2026-02-19 15:31 53.29030 10.13476 15615 ft 308 kts
2026-02-19 15:31 53.31161 10.13546 15302 ft 305 kts
2026-02-19 15:32 53.33278 10.13619 14953 ft 304 kts
2026-02-19 15:32 53.37481 10.13760 14302 ft 301 kts
2026-02-19 15:32 53.39569 10.13829 13966 ft 299 kts
2026-02-19 15:33 53.43718 10.13856 13256 ft 297 kts
2026-02-19 15:33 53.45775 10.13828 12906 ft 295 kts
2026-02-19 15:33 53.47823 10.13802 12542 ft 293 kts
2026-02-19 15:34 53.51882 10.13763 11835 ft 290 kts
2026-02-19 15:34 53.53889 10.13746 11486 ft 288 kts
2026-02-19 15:34 53.55887 10.13729 11120 ft 286 kts
2026-02-19 15:35 53.57870 10.13713 10807 ft 283 kts
2026-02-19 15:35 53.59841 10.13702 10564 ft 282 kts
2026-02-19 15:35 53.61792 10.13694 10234 ft 279 kts
2026-02-19 15:35 53.63719 10.13673 10009 ft 273 kts
2026-02-19 15:36 53.65562 10.13074 9880 ft 268 kts 343°
2026-02-19 15:36 53.68859 10.10338 9314 ft 262 kts 337°
2026-02-19 15:36 53.70479 10.08937 8962 ft 261 kts 337°
2026-02-19 15:37 53.72096 10.07533 8594 ft 261 kts 337°
2026-02-19 15:37 53.73705 10.06135 8227 ft 260 kts 338°
2026-02-19 15:37 53.75314 10.04740 7858 ft 260 kts 338°
2026-02-19 15:37 53.76919 10.03349 7484 ft 259 kts 339°
2026-02-19 15:38 53.78503 10.01980 7118 ft 259 kts 339°
2026-02-19 15:38 53.80103 10.00596 6768 ft 258 kts 339°
2026-02-19 15:38 53.81700 9.99212 6455 ft 262 kts 339°
2026-02-19 15:38 53.83476 9.97699 6218 ft 305 kts 339°
2026-02-19 15:39 53.85390 9.96056 5956 ft 306 kts 338°
2026-02-19 15:39 53.87241 9.94435 5808 ft 293 kts 338°
2026-02-19 15:39 53.89005 9.92877 5676 ft 280 kts 338°
2026-02-19 15:39 53.90624 9.91149 5543 ft 274 kts 322°
2026-02-19 15:40 53.91755 9.88607 5407 ft 269 kts 297°
2026-02-19 15:40 53.91890 9.82575 4874 ft 257 kts 240°
2026-02-19 15:41 53.89307 9.79311 4315 ft 219 kts 178°
2026-02-19 15:41 53.87878 9.79463 4139 ft 199 kts 159°
2026-02-19 15:41 53.86541 9.79975 3992 ft 196 kts 159°
2026-02-19 15:41 53.85234 9.80567 3678 ft 192 kts 152°
2026-02-19 15:42 53.84017 9.81430 3388 ft 188 kts 147°
2026-02-19 15:42 53.82877 9.82371 3270 ft 175 kts 146°
2026-02-19 15:42 53.81829 9.83271 3123 ft 163 kts 145°
2026-02-19 15:42 53.80862 9.84109 3035 ft 150 kts 144°
2026-02-19 15:43 53.79949 9.84906 2998 ft 146 kts 144°
2026-02-19 15:43 53.79061 9.85681 3004 ft 140 kts 144°
2026-02-19 15:43 53.78210 9.86423 2981 ft 136 kts 143°
2026-02-19 15:43 53.77378 9.87154 2857 ft 134 kts 143°
2026-02-19 15:44 53.76557 9.87887 2712 ft 134 kts 144°
2026-02-19 15:44 53.74909 9.89303 2336 ft 132 kts 144°
2026-02-19 15:44 53.74098 9.90019 2148 ft 131 kts 143°
2026-02-19 15:45 53.73290 9.90731 1945 ft 131 kts 144°
2026-02-19 15:45 53.72488 9.91405 1763 ft 127 kts 145°
2026-02-19 15:45 53.71701 9.92066 1565 ft 126 kts 143°
2026-02-19 15:45 53.70927 9.92771 1370 ft 127 kts 144°
2026-02-19 15:46 53.70145 9.93456 1189 ft 127 kts 146°
2026-02-19 15:46 53.69352 9.94140 1003 ft 129 kts 145°
2026-02-19 15:46 53.68543 9.94844 810 ft 132 kts 146°
2026-02-19 15:46 53.67707 9.95572 625 ft 138 kts 147°
2026-02-19 15:47 53.66841 9.96329 410 ft 143 kts 149°
2026-02-19 15:47 53.65949 9.97092 213 ft 143 kts 149°
2026-02-19 15:47 53.65072 9.97844 50 ft 133 kts 148°
2026-02-19 15:47 53.64360 9.98459 40 ft 83 kts 153°
2026-02-19 15:48 53.64060 9.98721 43 ft 35 kts 146°
2026-02-19 15:48 53.63814 9.99229 43 ft 23 kts 125°
2026-02-19 15:48 53.63724 9.99441 44 ft 22 kts 126°
2026-02-19 15:49 53.63635 9.99646 45 ft 21 kts 128°
2026-02-19 15:49 53.63547 9.99851 44 ft 22 kts 125°
2026-02-19 15:49 53.63473 10.00021 46 ft 12 kts 125°
2026-02-19 15:49 53.63429 10.00132 46 ft 12 kts 126°
2026-02-19 15:50 53.63369 10.00227 46 ft 12 kts 164°
2026-02-19 15:50 53.63284 10.00240 46 ft 13 kts 176°
2026-02-19 15:50 53.63164 10.00254 45 ft 17 kts 177°
2026-02-19 15:50 53.63050 10.00239 45 ft 16 kts 208°
2026-02-19 15:51 53.62971 10.00158 46 ft 10 kts 196°
2026-02-19 15:51 53.62939 10.00229 42 ft 8 kts 112°
2026-02-19 15:51 53.62927 10.00283 46 ft 2 kts 111°
2026-02-19 15:51 53.62925 10.00291 46 ft 0 kts 110°
2026-02-19 15:57 53.62925 10.00290 46 ft 0 kts 110°